This demonstration page uses our WeatherBlox Daily Observations layout. Learn more.

Left ArrowRight Arrow

Hourly Observations for July 16, 2022

Temp ( °F °C ) Dew Point ( °F °C ) Humidity (%) Winds ( mph kmh ) Pressure ( in mb ) Visibility ( mi km ) Precip ( " mm )
12:00 am 00:00 Cloudy with Thunderstorms 64 17.8 60 15.6 87 87 NNW 9 15 30.01 1016 9 14 0.01 0.25
12:15 am 00:15 Cloudy with Strong Thunderstorms 63 17.2 61 16.1 93 93 SSW 5 7 30.03 1017 2 3 0.14 3.56
12:26 am 00:26 Cloudy with Thunderstorms 63 17.2 60 15.6 90 90 SSE 8 13 30.03 1017 3 5 0.22 5.59
12:53 am 00:53 Cloudy with Nearby Thunderstorms 63 17.2 59 15 87 87 ESE 8 13 30.09 1019 5 8 0.26 6.60
1:05 am 01:05 Cloudy with Light Rain 62 16.7 58 14.4 86 86 ENE 6 9 30.01 1016 8 13 0.01 0.25
1:53 am 01:53 Clear 62 16.7 58 14.4 86 86 ENE 7 11 30.08 1019 10 16 0.01 0.25
2:53 am 02:53 Clear 60 15.6 56 13.3 86 86 Calm 30.12 1020 10 16 0.00 0.00
3:53 am 03:53 Mostly Clear 60 15.6 58 14.4 93 93 Calm 30.09 1019 10 16 0.00 0.00
4:53 am 04:53 Mostly Cloudy 60 15.6 56 13.3 86 86 Calm 30.09 1019 10 16 0.00 0.00
5:53 am 05:53 Partly Cloudy 60 15.6 57 13.9 90 90 NE 6 9 30.10 1019 10 16 0.00 0.00
6:53 am 06:53 Mostly Cloudy 61 16.1 57 13.9 87 87 N 5 7 30.14 1021 10 16 0.00 0.00
7:53 am 07:53 Cloudy 61 16.1 58 14.4 90 90 Calm 30.14 1021 10 16 0.00 0.00
8:53 am 08:53 Mostly Cloudy 67 19.4 60 15.6 79 79 WNW 5 7 30.15 1021 10 16 0.00 0.00
9:53 am 09:53 Sunny 71 21.7 59 15 66 66 Calm 30.13 1020 10 16 0.00 0.00
10:53 am 10:53 Sunny 76 24.4 59 15 56 56 Calm 30.12 1020 10 16 0.00 0.00
11:53 am 11:53 Sunny 77 25 58 14.4 52 52 Calm 30.11 1020 10 16 0.00 0.00
12:53 pm 12:53 Sunny 81 27.2 59 15 47 47 undefined N/A 30.09 1019 10 16 0.00 0.00
1:53 pm 13:53 Sunny 85 29.4 56 13.3 37 37 VRB 3 6 30.06 1018 10 16 0.00 0.00
2:53 pm 14:53 Sunny 86 30 54 12.2 33 33 VRB 6 9 30.04 1017 10 16 0.00 0.00
3:53 pm 15:53 Sunny 88 31.1 51 10.6 28 28 undefined N/A 30.01 1016 10 16 0.00 0.00
4:53 pm 16:53 Sunny 87 30.6 48 8.9 26 26 Calm 29.99 1016 10 16 0.00 0.00
5:53 pm 17:53 Sunny 87 30.6 47 8.3 25 25 SE 6 9 29.98 1015 10 16 0.00 0.00
6:53 pm 18:53 Sunny 86 30 46 7.8 25 25 ESE 5 7 29.97 1015 10 16 0.00 0.00
7:53 pm 19:53 Sunny 79 26.1 51 10.6 38 38 S 9 15 29.99 1016 10 16 0.00 0.00
8:53 pm 20:53 Clear 73 22.8 54 12.2 51 51 NNW 7 11 30.00 1016 10 16 0.00 0.00
9:53 pm 21:53 Clear 72 22.2 49 9.4 44 44 E 5 7 30.01 1016 10 16 0.00 0.00
10:53 pm 22:53 Clear 66 18.9 52 11.1 61 61 E 3 6 30.04 1017 10 16 0.00 0.00
11:53 pm 23:53 Clear 62 16.7 52 11.1 70 70 NNE 6 9 30.04 1017 10 16 0.00 0.00

Powered by AerisWeather